• In Belarus
  • List of Countries
  • For 7 days
  • Water Temperature
  • Satellite Maps
  • Weather Map
  • Weather Widgets
  • user-avatar
    Login

    Hourly Weather Salta

    Today, 23 May, Wednesday

    Time Temperature Precipitation Wind Pressure Humidity
    00:00 +11°C° 0 mm 1 mps 652 mmHg 82%
    01:00 +11°C° 0 mm 1 mps 652 mmHg 81%
    02:00 +11°C° 0 mm 1 mps 652 mmHg 81%
    03:00 +11°C° 0 mm 1 mps 652 mmHg 79%
    04:00 +11°C° 0 mm 1 mps 652 mmHg 77%
    05:00 +11°C° 0 mm 1 mps 652 mmHg 75%
    06:00 +12°C° 0 mm 1 mps 652 mmHg 72%
    07:00 +12°C° 0 mm 1 mps 653 mmHg 69%
    08:00 +14°C° 0 mm 1 mps 653 mmHg 63%
    09:00 +15°C° 0 mm 1 mps 654 mmHg 58%
    10:00 +17°C° 0 mm 2 mps 654 mmHg 53%
    11:00 +18°C° 0 mm 2 mps 655 mmHg 48%
    12:00 +19°C° 0 mm 2 mps 654 mmHg 46%
    13:00 +20°C° 0 mm 2 mps 654 mmHg 44%
    14:00 +21°C° 0 mm 2 mps 654 mmHg 42%
    15:00 +20°C° 0 mm 2 mps 653 mmHg 47%
    16:00 +19°C° 0 mm 2 mps 653 mmHg 52%
    17:00 +18°C° 0 mm 2 mps 653 mmHg 57%
    18:00 +16°C° 0 mm 1 mps 653 mmHg 65%
    19:00 +14°C° 0 mm 1 mps 653 mmHg 73%
    20:00 +12°C° 0 mm 1 mps 653 mmHg 81%
    21:00 +12°C° 0 mm 1 mps 653 mmHg 82%
    22:00 +12°C° 0 mm 1 mps 653 mmHg 82%
    23:00 +12°C° 0 mm 1 mps 653 mmHg 83%

    Tomorrow, 24 May, Thursday

    Time Temperature Precipitation Wind Pressure Humidity
    00:00 +11°C° 0 mm 1 mps 653 mmHg 82%
    01:00 +10°C° 0 mm 0 mps 653 mmHg 82%
    02:00 +10°C° 0 mm 0 mps 653 mmHg 82%
    03:00 +10°C° 0 mm 0 mps 653 mmHg 81%
    04:00 +10°C° 0 mm 0 mps 653 mmHg 80%
    05:00 +10°C° 0 mm 0 mps 653 mmHg 80%
    06:00 +10°C° 0 mm 0 mps 653 mmHg 76%
    07:00 +11°C° 0 mm 0 mps 654 mmHg 73%
    08:00 +12°C° 0 mm 0 mps 654 mmHg 69%
    09:00 +15°C° 0 mm 1 mps 655 mmHg 61%
    10:00 +19°C° 0 mm 1 mps 656 mmHg 53%
    11:00 +20°C° 0 mm 2 mps 656 mmHg 45%
    12:00 +20°C° 0 mm 2 mps 656 mmHg 44%
    13:00 +21°C° 0 mm 2 mps 655 mmHg 42%
    14:00 +23°C° 0 mm 2 mps 655 mmHg 40%
    15:00 +21°C° 0 mm 2 mps 654 mmHg 45%
    16:00 +20°C° 0 mm 2 mps 654 mmHg 49%
    17:00 +19°C° 0 mm 2 mps 653 mmHg 53%
    18:00 +18°C° 0 mm 1 mps 653 mmHg 61%
    19:00 +15°C° 0 mm 1 mps 653 mmHg 69%
    20:00 +13°C° 0 mm 1 mps 653 mmHg 76%
    21:00 +12°C° 0 mm 1 mps 653 mmHg 77%
    22:00 +12°C° 0 mm 1 mps 653 mmHg 77%
    23:00 +12°C° 0 mm 1 mps 653 mmHg 77%

    Day after tomorrow, 25 May, Friday

    Time Temperature Precipitation Wind Pressure Humidity
    00:00 +12°C° 0 mm 1 mps 653 mmHg 75%
    01:00 +12°C° 0 mm 1 mps 653 mmHg 73%
    02:00 +12°C° 0 mm 1 mps 652 mmHg 71%
    03:00 +12°C° 0 mm 1 mps 652 mmHg 69%
    04:00 +12°C° 0 mm 1 mps 652 mmHg 68%
    05:00 +12°C° 0 mm 1 mps 652 mmHg 66%
    06:00 +12°C° 0 mm 1 mps 652 mmHg 64%
    07:00 +13°C° 0 mm 1 mps 653 mmHg 62%
    08:00 +14°C° 0 mm 1 mps 653 mmHg 60%
    09:00 +16°C° 0 mm 1 mps 654 mmHg 53%
    10:00 +19°C° 0 mm 1 mps 655 mmHg 47%
    11:00 +20°C° 0 mm 2 mps 655 mmHg 41%
    12:00 +21°C° 0 mm 2 mps 655 mmHg 39%
    13:00 +23°C° 0 mm 2 mps 654 mmHg 38%
    14:00 +24°C° 0 mm 2 mps 653 mmHg 36%
    15:00 +23°C° 0 mm 2 mps 653 mmHg 41%
    16:00 +21°C° 0 mm 2 mps 652 mmHg 46%
    17:00 +20°C° 0 mm 2 mps 652 mmHg 51%
    18:00 +19°C° 0 mm 1 mps 651 mmHg 58%
    19:00 +16°C° 0 mm 1 mps 651 mmHg 65%
    20:00 +14°C° 0 mm 1 mps 651 mmHg 72%
    21:00 +13°C° 0 mm 1 mps 651 mmHg 71%
    22:00 +13°C° 0 mm 1 mps 651 mmHg 71%
    23:00 +13°C° 0 mm 1 mps 651 mmHg 70%

    26 May, Saturday

    Time Temperature Precipitation Wind Pressure Humidity
    00:00 +13°C° 0 mm 1 mps 651 mmHg 67%
    01:00 +13°C° 0 mm 1 mps 651 mmHg 65%
    02:00 +13°C° 0 mm 1 mps 650 mmHg 62%
    03:00 +13°C° 0 mm 2 mps 650 mmHg 60%
    04:00 +13°C° 0 mm 2 mps 650 mmHg 58%
    05:00 +13°C° 0 mm 2 mps 650 mmHg 56%
    06:00 +14°C° 0 mm 2 mps 650 mmHg 55%
    07:00 +14°C° 0 mm 2 mps 651 mmHg 54%
    08:00 +15°C° 0 mm 1 mps 651 mmHg 53%
    09:00 +17°C° 0 mm 2 mps 651 mmHg 50%
    10:00 +19°C° 0 mm 2 mps 652 mmHg 46%
    11:00 +21°C° 0 mm 2 mps 652 mmHg 43%
    12:00 +23°C° 0 mm 2 mps 652 mmHg 41%
    13:00 +24°C° 0 mm 2 mps 651 mmHg 38%
    14:00 +25°C° 0 mm 2 mps 651 mmHg 36%
    15:00 +24°C° 0 mm 2 mps 650 mmHg 41%
    16:00 +23°C° 0 mm 2 mps 650 mmHg 47%
    17:00 +22°C° 0 mm 1 mps 650 mmHg 52%
    18:00 +20°C° 0 mm 1 mps 650 mmHg 59%
    19:00 +18°C° 0 mm 1 mps 650 mmHg 65%
    20:00 +15°C° 0 mm 1 mps 649 mmHg 72%
    21:00 +14°C° 0 mm 1 mps 650 mmHg 71%
    22:00 +14°C° 0 mm 1 mps 650 mmHg 70%
    23:00 +14°C° 0 mm 1 mps 650 mmHg 69%

    27 May, Sunday

    Time Temperature Precipitation Wind Pressure Humidity
    00:00 +14°C° 0 mm 1 mps 650 mmHg 67%
    01:00 +14°C° 0 mm 1 mps 650 mmHg 64%
    02:00 +14°C° 0 mm 1 mps 650 mmHg 62%
    03:00 +14°C° 0 mm 1 mps 650 mmHg 62%
    04:00 +14°C° 0 mm 1 mps 650 mmHg 61%
    05:00 +14°C° 0 mm 1 mps 650 mmHg 61%
    06:00 +15°C° 0 mm 1 mps 651 mmHg 59%
    07:00 +15°C° 0 mm 1 mps 652 mmHg 58%
    08:00 +16°C° 0 mm 1 mps 653 mmHg 56%
    09:00 +20°C° 0 mm 1 mps 653 mmHg 52%
    10:00 +22°C° 0 mm 1 mps 654 mmHg 47%
    11:00 +24°C° 0 mm 2 mps 655 mmHg 43%
    12:00 +25°C° 0 mm 2 mps 654 mmHg 43%
    13:00 +25°C° 0 mm 2 mps 654 mmHg 44%
    14:00 +25°C° 0 mm 2 mps 653 mmHg 44%
    15:00 +24°C° 0 mm 2 mps 653 mmHg 50%
    16:00 +23°C° 0 mm 2 mps 652 mmHg 55%
    17:00 +23°C° 0 mm 2 mps 652 mmHg 60%
    18:00 +20°C° 0 mm 2 mps 652 mmHg 67%
    19:00 +20°C° 0 mm 1 mps 652 mmHg 74%
    20:00 +18°C° 0 mm 1 mps 652 mmHg 81%
    21:00 +18°C° 0 mm 1 mps 652 mmHg 80%
    22:00 +16°C° 0 mm 1 mps 652 mmHg 80%
    23:00 +16°C° 0 mm 1 mps 652 mmHg 79%

    28 May, Monday

    Time Temperature Precipitation Wind Pressure Humidity
    00:00 +16°C° 0 mm 1 mps 651 mmHg 76%
    01:00 +16°C° 0 mm 1 mps 651 mmHg 74%
    02:00 +16°C° 0 mm 1 mps 651 mmHg 71%
    03:00 +16°C° 0 mm 1 mps 651 mmHg 69%
    04:00 +16°C° 0 mm 1 mps 650 mmHg 68%
    05:00 +16°C° 0 mm 1 mps 650 mmHg 66%
    06:00 +16°C° 0 mm 1 mps 651 mmHg 64%
    07:00 +18°C° 0 mm 1 mps 651 mmHg 62%
    08:00 +19°C° 0 mm 1 mps 652 mmHg 60%
    09:00 +19°C° 0 mm 2 mps 652 mmHg 57%
    10:00 +21°C° 0 mm 2 mps 652 mmHg 53%
    11:00 +24°C° 0 mm 2 mps 652 mmHg 50%
    12:00 +24°C° 0 mm 2 mps 651 mmHg 49%
    13:00 +25°C° 0 mm 3 mps 651 mmHg 49%
    14:00 +25°C° 0 mm 3 mps 650 mmHg 48%
    15:00 +25°C° 0 mm 3 mps 649 mmHg 52%
    16:00 +24°C° 0 mm 3 mps 649 mmHg 57%
    17:00 +23°C° 0 mm 2 mps 648 mmHg 61%
    18:00 +20°C° 0 mm 2 mps 648 mmHg 63%
    19:00 +19°C° 0 mm 2 mps 648 mmHg 65%
    20:00 +18°C° 0 mm 2 mps 648 mmHg 68%
    21:00 +18°C° 0 mm 2 mps 648 mmHg 66%
    22:00 +18°C° 0 mm 2 mps 648 mmHg 64%
    23:00 +18°C° 0 mm 2 mps 649 mmHg 62%
    Show more